Flag for Austria Weather past 2 weeks in Ansfelden, Upper Austria, Austria

Now
64 °F

Light rain. Low clouds.


Feels Like: 64 °F
Forecast: 60 / 76 °F
Wind: N/A

Location: Linz / Hoersching-Flughafen

Current Time: Jul 22, 2014 at 1:38:36 PM

Latest Report: Jul 22, 2014 at 1:00 PM


Visibility: 17 mi

Pressure: 29.88 "Hg

Humidity: 90%

Dew point: 61 °F

Location of AnsfeldenLocation

Historic Weather in Ansfelden — Graph

°F

Ansfelden temperature yesterday

Maximum temperature yesterday: 74 °F (at 4:00 PM)
Minimum temperature yesterday: 62 °F (at 11:00 PM)
Average temperature yesterday: 68 °F

Past Weeks' High & Low Weather Summary

 TemperatureHumidityPressure
High95 °F (Jul 20, 5:00 PM)96% (Jul 14, 5:00 AM)30.16 "Hg (Jul 14, 5:00 AM)
Low51 °F (Jul 10, 2:00 AM)24% (Jul 20, 5:00 PM)29.62 "Hg (Jul 8, 3:00 PM)
Average68 °F73%29.92 "Hg
* Reported Jul 7 12:00 Noon — Jul 22 12:00 Noon, Ansfelden, Weather by CustomWeather, © 2014

Note: Actual official high and low records may vary slightly from our data, if they occured in-between our weather recording intervals... More about our weather records

Advertising

Ansfelden weather history for previous 24 hours

 ConditionsComfort  
Time TempWeatherWind HumidityBarometerVisibility
12:00 PM
Jul 22
64 °FLight rain. Low clouds.N/A92%29.87 "Hg9 mi
11:00 AM64 °FLow clouds.3 mph92%29.86 "Hg16 mi
10:00 AM63 °FLow clouds.5 mph92%29.85 "Hg31 mi
9:00 AM62 °FLight rain. Low clouds.5 mph94%29.85 "Hg7 mi
8:00 AM62 °FHeavy rain. Low clouds.N/A96%29.83 "Hg3 mi
7:00 AM62 °FHeavy rain. Low clouds.N/A96%29.84 "Hg2 mi
6:00 AM62 °FHeavy rain. Low clouds.N/A96%29.83 "Hg4 mi
5:00 AM62 °FHeavy rain. Low clouds.N/A95%29.82 "Hg6 mi
3:00 AM62 °FOvercast.N/A96%29.82 "Hg13 mi
2:00 AM62 °FRain showers. Low clouds.3 mph96%29.83 "Hg8 mi
1:00 AM62 °FHeavy rain. Low clouds.N/A96%29.83 "Hg5 mi
12:00 AM62 °FFreezing rain. Low clouds.N/A96%29.84 "Hg6 mi
11:00 PM
Jul 21
62 °FSprinkles. Low clouds.6 mph95%29.84 "Hg5 mi
10:00 PM62 °FRain showers. Overcast.6 mph93%29.83 "Hg9 mi
9:00 PM63 °FRain showers. Overcast.5 mph93%29.83 "Hg11 mi
8:00 PM65 °FRain showers. Overcast.6 mph89%29.80 "Hg11 mi
7:00 PM70 °FOvercast.7 mph73%29.79 "Hg19 mi
6:00 PMN/APassing clouds.8 mphN/AN/A13 mi
5:00 PM72 °FOvercast.8 mph70%29.78 "Hg13 mi
4:00 PM74 °FOvercast.7 mph67%29.77 "Hg9 mi
3:00 PM73 °FOvercast.7 mph68%29.78 "Hg12 mi
2:00 PM73 °FOvercast.8 mph68%29.81 "Hg15 mi
1:00 PM73 °FOvercast.6 mph69%29.81 "Hg19 mi
Weather by CustomWeather, © 2014

See weather overviewHow to use our weather pages